Location: Buch
(49.7331°N, 12.1098°E)
Time: 00:34:45
(UTC+00:00)

Meteor 1-13 Rocket - Pass Details

Date: 12 May 2021
Orbit: 830 x 912 km, 81.3° (Epoch: 23 June)

Event Time Altitude Azimuth Distance (km) Brightness Sun altitude
Exits shadow 22:45:49 42° 142° (SE) 1,188 4.5 -21.7°
Maximum altitude 22:47:17 54° 95° (E) 1,017 4.5 -21.7°
Drops below altitude 10° 22:52:39 10° 20° (NNE) 2,451 7.5 -21.8°
Sets 22:55:06 0° 16° (NNE) 3,388 8.6 -21.8°
